Location: Forst
(46.9333°N, 15.4333°E)
Time: 15:19:46
(UTC+00:00)

Cosmos 1805 Rocket - Pass Details

Date: 01 December 2020
Orbit: 605 x 631 km, 82.5° (Epoch: 27 January)

Event Time Altitude Azimuth Distance (km) Brightness Sun altitude
Rises 15:52:21 0° 348° (NNW) 2,931 6.9 -7.0°
Reaches altitude 10° 15:54:36 10° 345° (NNW) 2,017 6.1 -7.4°
Maximum altitude 15:59:02 64° 265° (W) 695 4.1 -8.0°
Drops below altitude 10° 16:03:23 10° 184° (S) 1,987 6.5 -8.7°
Sets 16:05:36 0° 181° (S) 2,884 7.3 -9.1°
